Location: Appetshofen
(48.8191°N, 10.6079°E)
Time: 13:50:28
(UTC+00:00)

Daily predictions for brighter satellites

Satellite Brightness Start Highest point End
(mag) Time Altitude Azimuth Time Altitude Azimuth Time Altitude Azimuth
ERS-1 Rocket 3.2 19:53:27 10° SSE 19:58:22 60° ENE 20:03:20 10° N
Cosmos 1763 Rocket 3.8 19:53:28 10° NNW 19:58:43 69° WSW 20:03:51 10° S
Cosmos 1553 Rocket 4.1 19:54:23 10° N 20:00:34 85° E 20:06:50 10° S
S3M 4.4 19:56:58 10° N 20:03:12 52° ENE 20:09:20 10° SSE
Cosmos 1626 4.4 20:00:49 10° SW 20:03:24 23° WNW 20:06:01 10° NNW
Spot 2 Rocket 3.9 20:00:52 10° SE 20:05:47 53° ENE 20:10:44 10° N
Cosmos 1441 Rocket 3.0 20:09:54 10° N 20:13:30 82° ENE 20:17:08 10° SSE
Okean-O 3.6 20:09:41 10° S 20:13:54 45° W 20:18:10 10° NNW
Cosmos 2360 Rocket 3.1 20:09:44 10° NNW 20:15:03 39° NE 20:20:20 10° ESE
ATLAS 2AS CENTAUR R/B 3.3 20:10:03 10° NW 20:16:47 50° NE 20:23:14 10° ESE
Cosmos 2266 Rocket 4.2 20:12:01 10° SSE 20:18:09 56° E 20:24:24 10° NNE
Cosmos 1733 Rocket 4.3 20:14:45 10° N 20:18:37 29° ENE 20:22:28 10° SE
Cosmos 1300 3.7 20:16:53 10° N 20:20:03 29° ENE 20:23:03 11° SE
USA 245 3.2 20:19:04 10° SSE 20:22:26 89° WSW 20:26:46 10° NNW
Cosmos 1674 3.8 20:20:08 10° SSW 20:23:25 41° WNW 20:26:44 10° N
Cosmos 2333 Rocket 3.1 20:18:02 10° NNW 20:23:29 42° NE 20:28:55 10° ESE
SL-16 R/B 2.3 20:18:35 10° NNW 20:24:18 80° ENE 20:29:51 11° SSE
Cosmos 1515 Rocket 4.4 20:20:32 10° SSW 20:24:44 52° WNW 20:29:00 10° N
In-Cosmos 22 4.2 20:19:26 10° S 20:25:02 68° E 20:30:31 10° NNE
Cosmos 1908 3.3 20:22:22 10° NNW 20:25:57 67° W 20:29:32 10° S
Cosmos 1470 3.6 20:22:33 10° NNW 20:26:07 45° W 20:29:39 10° SSW
Cosmos 468 Rocket 4.5 20:22:24 10° NNW 20:27:33 58° WSW 20:32:36 10° S
Atlas Centaur 2 4.3 20:23:43 10° SW 20:29:21 20° S 20:34:35 11° SE
Cosmos 2082 Rocket 3.1 20:23:48 10° SW 20:29:23 54° NW 20:35:00 10° NNE
Ariane Rocket 3.0 20:25:16 10° SSE 20:30:21 80° ENE 20:35:28 10° NNW
Cosmos 2228 Rocket 3.8 20:28:14 10° SSE 20:32:25 37° E 20:36:38 10° NNE
SL-14 R/B 4.0 20:29:37 11° SSE 20:32:54 34° E 20:36:22 10° NNE
Meteor 1-12 Rocket 4.5 20:29:47 10° N 20:35:48 69° ENE 20:41:31 11° SSE
RESURS DK-1 2.5 20:31:48 10° NNW 20:35:53 67° ENE 20:39:23 13° SE
Okean O Rocket 4.2 20:33:43 10° SW 20:36:28 16° W 20:39:13 10° NW
Tiangong 0.1 20:37:08 10° SW 20:38:33 13° SSW 20:39:45 11° S
Cosmos 1869 Rocket 3.8 20:36:24 10° NNW 20:40:50 70° W 20:45:15 10° S
Cosmos 1850 Rocket 4.4 20:36:45 10° S 20:41:42 44° ESE 20:46:37 10° NE
Cosmos 1346 Rocket 3.2 20:39:44 10° N 20:43:29 46° ENE 20:46:26 15° SE
Terra 2.1 20:39:58 10° S 20:44:39 64° WSW 20:49:21 10° NNW
SPOT 3 Rocket 3.6 20:40:43 10° SSE 20:45:49 84° WSW 20:51:02 10° NNW
USA 281 4.0 20:42:16 10° ESE 20:48:21 42° NE 20:54:28 10° NNW
Timation 1 Rocket 4.4 20:44:22 10° SSW 20:50:13 63° ESE 20:56:07 10° NE
EXPRESS MD2 1.8 20:50:52 10° WSW 20:53:32 76° SSE 20:55:42 10° ENE
Meteor 1-22 Rocket 4.5 20:49:11 10° NNW 20:54:46 70° W 21:00:31 10° S
Cosmos 2315 Rocket 4.1 20:50:02 10° N 20:56:26 84° E 21:02:15 13° S
Cosmos 1758 3.2 20:54:09 10° N 20:58:04 87° E 21:01:09 16° S
Cosmos 1741 Rocket 4.1 20:55:39 10° S 21:00:49 60° ESE 21:06:03 10° NNE
Landsat 4 4.4 21:00:47 12° S 21:03:48 42° W 21:07:05 10° NNW
Cosmos 968 Rocket 3.8 20:59:28 12° S 21:03:59 47° ESE 21:08:57 10° NNE
Cosmos 2322 Rocket 2.3 21:02:28 10° NNW 21:08:09 78° WSW 21:12:36 17° SSE
Cosmos 1814 Rocket 4.3 21:03:05 10° NNW 21:08:20 60° ENE 21:12:20 17° SE
Cosmos 1356 Rocket 3.4 21:06:07 13° S 21:09:52 78° E 21:14:06 10° NNE
SeaSat 1 3.9 21:08:04 10° SSW 21:12:15 28° WSW 21:16:28 10° NW
Cosmos 1862 Rocket 3.5 21:11:25 15° S 21:14:57 72° E 21:19:23 10° NNE
Meteor 1-21 4.3 21:13:03 11° S 21:18:32 79° E 21:24:22 10° NNE
Okean 2 4.0 21:19:14 22° SSE 21:21:19 38° E 21:25:03 10° NNE
USA 234 3.5 21:15:44 10° NE 21:22:16 76° NNW 21:28:47 10° WSW
BREEZE-M DEB (TANK) 4.3 21:01:45 10° WSW 21:23:09 88° S 21:27:57 10° E
Cosmos 1400 Rocket 4.1 21:23:13 10° SW 21:26:50 37° WNW 21:30:26 10° N
Cosmos 1455 2.7 21:24:37 10° N 21:27:58 40° ENE 21:29:35 24° SE
SL-4 R/B 2.6 21:25:09 10° WNW 21:29:00 56° N 21:33:07 10° E
COSMOS 2428 3.8 21:23:43 10° NNW 21:29:00 38° NE 21:33:46 12° ESE
COSMOS 2455 4.5 21:29:10 14° ESE 21:30:53 16° ESE 21:34:16 10° ENE
Meteor 2-10 Rocket 4.5 21:26:16 10° NNW 21:31:36 45° W 21:36:16 12° SSW
Landsat 5 3.8 21:30:19 10° N 21:34:15 61° WNW 21:38:06 11° SSW
Cosmos 2219 Rocket 2.3 21:29:51 10° NNW 21:35:34 76° ENE 21:39:27 21° SE
Cosmos 1707 Rocket 4.0 21:31:38 11° SSW 21:35:48 60° WNW 21:40:13 10° N
ATLAS CENTAUR R/B 0.9 21:35:38 10° SW 21:39:08 88° NW 21:42:45 10° NE
ARIANE 5 R/B 2.7 21:39:26 25° SSE 21:41:54 67° ENE 21:46:13 10° N
Cosmos 1315 Rocket 2.8 21:39:54 26° S 21:42:01 64° E 21:46:00 10° NNE
SJ 16-02 1.2 21:39:28 19° SSW 21:42:31 76° ESE 21:46:51 10° NNE
Kosmos-1783 4.5 21:39:04 10° NW 21:42:39 74° NE 21:48:19 16° SE
Meteor 1-4 Rocket 1.9 21:41:42 31° SSW 21:42:58 87° W 21:45:59 10° N
SL-27 R/B 2.7 21:41:51 17° SW 21:43:44 49° WNW 21:46:29 10° NNE
Okean 3 3.6 21:41:42 17° SSW 21:44:46 69° W 21:48:56 10° N
Cosmos 1953 2.1 21:41:51 10° N 21:45:42 78° E 21:47:31 30° SSE
Cosmos 1241 Rocket 4.5 21:42:42 12° SSW 21:48:26 62° ESE 21:54:35 10° NE
Aureole 3 4.0 21:49:38 17° SSW 21:52:29 58° WNW 21:57:12 10° N
Cosmos 1733 Rocket 4.5 21:52:26 10° NNW 21:56:21 32° W 21:59:30 14° SSW
Nadezhda 1 Rocket 4.2 21:51:19 10° N 21:57:37 65° ENE 22:01:33 24° SSE
Cosmos 2360 Rocket 3.0 21:53:47 10° NW 21:59:05 42° WSW 22:02:32 20° SSW
H-2A R/B 2.8 21:59:14 27° SE 22:01:24 61° ENE 22:05:38 10° N
GP-B 3.0 21:57:46 10° N 22:02:12 82° E 22:04:27 29° S
Cosmos 839 Rocket 4.2 21:56:05 10° NW 22:02:57 65° WSW 22:06:44 24° SSE
SL-16 R/B 4.2 22:03:55 10° WNW 22:07:42 19° W 22:11:29 10° SW
ATLAS 2AS CENTAUR R/B 3.1 22:01:13 10° NW 22:07:42 48° WSW 22:11:32 23° S
Cosmos 2333 Rocket 3.1 22:02:27 10° NW 22:07:45 40° WSW 22:11:07 21° SSW
Cosmos 1908 Rocket 3.7 22:04:37 10° NNW 22:08:57 68° W 22:11:05 29° S
Cosmos 1782 Rocket 3.6 22:07:13 10° N 22:11:33 68° E 22:13:29 31° SSE
BREEZE-M DEB (TANK) 3.5 22:10:53 10° W 22:13:51 82° N 22:22:23 10° E
Okean 1-7 3.6 22:13:22 20° SSW 22:16:12 53° WNW 22:20:27 10° N
Atlas Centaur 2 4.5 22:12:53 10° SW 22:16:48 15° SSW 22:16:48 15° SSW
Cosmos 1408 2.5 22:22:39 42° ESE 22:22:53 43° E 22:25:46 10° NNE
Cosmos 1242 Rocket 2.1 22:23:20 49° SW 22:23:49 61° WNW 22:26:34 10° N
BlueWalker 3 2.8 22:24:27 30° ESE 22:24:27 30° ESE 22:27:15 10° ENE
BREEZE-M DEB (TANK) 3.2 22:20:08 10° WNW 22:23:59 37° N 22:26:01 10° ENE
MINOTAUR 4 R/B 4.0 22:22:29 10° N 22:25:21 54° WNW 22:26:10 37° SW
Cosmos 405 Rocket 4.3 22:25:08 10° NNE 22:28:18 25° ENE 22:29:56 19° ESE
Cosmos 1570 Rocket 4.1 22:26:28 10° NNW 22:31:48 70° WSW 22:34:28 30° S
Cosmos 1300 Rocket 3.4 22:27:51 10° N 22:32:11 89° W 22:33:55 36° S
USA 281 3.7 22:28:55 24° S 22:32:46 50° WSW 22:39:09 10° NW
Meteor 1-24 Rocket 4.4 22:30:01 25° SE 22:32:51 42° E 22:38:09 10° NNE
Cosmos 2237 Rocket 3.0 22:27:26 10° NNW 22:32:54 46° NE 22:37:15 15° ESE
Cosmos 1238 4.4 22:30:05 10° NNW 22:33:12 68° W 22:34:07 43° SSW
Cosmos 2322 3.7 22:27:33 10° NNW 22:33:14 70° WSW 22:36:10 29° S
H-2A R/B 3.5 22:30:48 10° NE 22:34:13 23° E 22:35:22 20° ESE
ALOS 2 2.6 22:32:43 33° SSE 22:34:39 79° ENE 22:39:03 10° NNW
Cosmos 371 Rocket 3.8 22:38:27 31° SSE 22:40:07 43° ESE 22:44:42 10° NE
Cosmos 2227 Rocket 3.9 22:38:36 16° ESE 22:40:28 18° E 22:44:13 10° ENE
CZ-3 Stage 3 4.5 22:16:20 10° W 22:40:42 30° SW 22:45:18 23° S
CZ-4C R/B 2.5 22:42:24 31° SSE 22:43:34 36° ESE 22:48:30 10° NE
BREEZE-M DEB (TANK) 3.3 22:45:04 44° SE 22:45:04 44° SE 22:49:25 10° ENE
Cosmos 1703 3.4 22:44:41 41° SE 22:45:34 53° E 22:49:10 10° NNE
Cosmos 1980 4.1 22:40:14 10° NNW 22:45:50 58° ENE 22:49:45 20° SE
Cosmos 1709 Rocket 4.0 22:45:06 27° S 22:48:50 83° E 22:55:14 10° N
Cosmos 2322 Rocket 4.4 22:48:43 10° WNW 22:51:13 13° W 22:53:44 10° WSW
Spot 4 4.2 22:49:10 30° SSW 22:51:17 54° W 22:56:01 10° NNW
NOSS 0 Rocket 3.9 22:48:51 10° NNW 22:55:07 83° WSW 22:58:44 27° SSE
Cosmos 158 Rocket 4.2 22:50:39 10° NNW 22:55:54 61° WSW 22:58:13 32° S
Sich 1 Rocket 4.4 22:55:05 10° N 22:59:18 42° ENE 23:01:19 26° SE
Cosmos 2242 Rocket 3.7 22:57:30 33° SSW 22:59:30 77° W 23:04:06 10° N
Cosmos 2297 Rocket 2.6 22:57:55 30° SSE 23:00:16 46° ESE 23:05:39 10° NE
Meteor 2-5 Rocket 3.9 22:57:47 30° S 23:00:51 70° E 23:06:41 10° NNE
EXPRESS MD2 4.1 22:58:47 10° WNW 22:59:34 19° WNW 22:59:34 19° WNW
Cosmos 1455 4.3 23:00:04 10° NW 23:02:02 14° W 23:03:18 12° WSW
Cosmos 2208 Rocket 4.4 22:58:46 10° NNW 23:03:46 49° WSW 23:05:55 30° SSW
GEOS 3 Rocket 4.2 22:59:46 10° NE 23:04:36 39° ESE 23:06:13 31° SSE
USA 234 4.4 22:58:42 10° ENE 23:04:52 46° N 23:11:02 10° W
Cosmos 1892 3.6 23:06:43 28° ESE 23:07:23 30° E 23:10:31 10° NNE
SL-4 R/B 1.9 23:03:56 10° WNW 23:08:00 89° SW 23:12:04 12° ESE
Cosmos 773 Rocket 3.9 23:02:52 10° NNW 23:08:02 86° WSW 23:10:31 32° SSE
COSMOS 2428 3.3 23:07:59 10° NW 23:13:21 44° WSW 23:15:45 28° SSW
CENTAUR R/B 3.6 23:12:45 21° SE 23:14:44 25° ESE 23:19:58 10° ENE
Cosmos 2098 Rocket 4.1 23:08:11 10° N 23:14:49 85° W 23:18:28 29° S
COSMOS 2455 2.8 23:12:16 26° SSW 23:15:51 81° ESE 23:21:55 10° NE
NOSS 8 (H) 4.2 23:15:28 48° SSW 23:16:21 83° SE 23:19:24 10° NE
ATLAS CENTAUR R/B 4.0 23:15:03 10° WNW 23:17:21 16° NNW 23:19:42 10° N
Cosmos 1503 Rocket 4.0 23:15:43 32° S 23:18:12 71° ESE 23:23:30 10° NNE
Cosmos 2219 Rocket 3.9 23:14:54 10° NW 23:18:52 20° W 23:21:08 16° SW
Cosmos 1777 Rocket 4.1 23:18:39 32° S 23:20:58 63° ESE 23:26:13 10° NNE
SJ 16-02 3.9 23:18:47 10° W 23:21:26 16° NW 23:24:05 10° NNW
PSLV R/B 3.7 23:27:10 10° N 23:31:23 65° WNW 23:33:06 33° SW
Cosmos 332 Rocket 4.2 23:31:18 32° SSE 23:33:11 50° ESE 23:37:55 10° NNE
Cosmos 304 Rocket 3.8 23:31:07 31° SSW 23:33:23 77° WNW 23:38:11 10° NNE
Cosmos 2263 Rocket 3.9 23:33:49 15° SE 23:36:20 19° E 23:40:12 10° NE
Cosmos 1174 4.1 23:32:36 10° NW 23:37:44 86° NE 23:39:54 29° SE
Okean 1 Rocket 3.1 23:36:51 10° N 23:41:12 73° E 23:43:05 33° SSE
Resurs 1-4 Rocket 4.5 23:41:36 10° ENE 23:43:10 11° E 23:44:43 10° ESE
Cosmos 2181 Rocket 4.1 23:40:11 10° NNW 23:46:17 61° W 23:49:34 28° SSW
Cosmos 1825 1.8 23:47:12 52° S 23:47:58 88° E 23:51:24 10° N
Helios 1A Rocket 4.1 23:46:37 18° SE 23:48:56 34° ENE 23:52:25 10° N
